User: anonymous   Login
Location: Larrial
(48.2758°N, 4.5331°W)
Time: 17:56:17
(UTC+00:00)
Language:

STARLINK-1154 - Orbit

View from above orbital plane
View from above orbital plane
View from above satellite
View from above satellite

Ground track
Ground track

The orbit data is extracted from the following two-line orbital elements,

1 45198U 20012W   20185.50001157 -.00011000  00000-0 -73651-3 0  9996
2 45198  53.0006 342.5035 0001633 102.9930 291.3914 15.05600807 21411
Epoch (UTC): 03 July 2020 12:00:01
Eccentricity: 0.0001633
inclination: 53.0006°
perigee height: 548 km
apogee height: 551 km
right ascension of ascending node: 342.5035°
argument of perigee: 102.9930°
revolutions per day: 15.05600807
mean anomaly at epoch: 291.3914°
orbit number at epoch: 2141

The dashed part of the orbit path shows where the satellite is in the earth's shadow,  

DLR